COSMOS 1383

Satellite information

Favourite Embed

Satellite Type and Status

PAYLOADIN ORBIT

Key statistics

Satellite COSMOS 1383 at a glance.

Uptime

15715

Days in orbit

Revolutions

≈ 13.7

Per day

Orbit

LEO

Low Earth Orbit

Inclination

82.9

Latest

Satellite identification and parameters

Extended collection of information and parameters for COSMOS 1383.

Object identification

Identified? True

Debris? False

Object name: COSMOS 1383

International designator: 1982-066A

Object number (NORAD): 13301

Object ID (CCSDS): 13301

Country: COMMONWEALTH OF INDEPENDENT STATES (CIS)

Current information (Y/N): Y

RCS size: LARGE

Orbital parameters

Period: 105.196 minutes

Inclination: 82.9313 deg

SMA: 7381.762 km

Apoapsis: 1024.61 km

Periapsis: 982.643 km

RAAN: 267.6806 deg

Eccentricy: 0.0028426

Argument of periapsis: 129.8688 deg

Mean anomaly: 341.284 deg

Mean motion: 13.68871693 rev/day

Mean motion (dot): 0.00000042 rev/day2

B* drag term: 0.000031379 1/REarth

Two-line elements (TLE)

Creation date: July 6, 2025, 6:05 p.m.

Reference frame: TEME

Reference center: EARTH

Epoch: July 6, 2025, 3:37 p.m. UTC

TLE line 0: 0 COSMOS 1383

TLE line 1: 1 13301U 82066A 25187.65111650 .00000042 00000-0 31379-4 0 9991

TLE line 2: 2 13301 82.9313 267.6806 0028426 129.8688 341.2840 13.68871693148439

Live tracking on map

Real-time ground track for satellite COSMOS 1383.

In-orbit conjunctions

A list of the most updated potential collisions computed for object COSMOS 1383.

Target Orbit TCA Probability of collision Miss distance Type
NIMBUS 2 DEB SSO 2024-07-07 16:05:05 0.0001213108 423.0 (m) DEBRIS

Associated space launch

Civilian navigation satellite equivalent to the purely military Parus

COSMOS 1383 was lifted into orbit during the mission ‘Kosmos-3M | Nadezhda 1’, on board a Kosmos-3M space rocket.

The launch took place on June 29, 1982, 9:45 p.m. from 132/1 (132L).

For more information about the launch, click the button.

Launch to space Kosmos-3M | Nadezhda 1
Kosmos-3M | Nadezhda 1

Agency: N/A

Status: Launch Successful

Launch date: June 29, 1982, 9:45 p.m. UTC

Rocket: Kosmos-3M

Launch pad: 132/1 (132L)

Location: Plesetsk Cosmodrome, Russian Federation

...

Latest news about this satellite

There are no fresh news available about this satellite. Check back as we update our databases every day.


Newsletter sign-up

Weekly statistics, charts and insights to help you stay on top of the space industry.